SHIJIAN-16 (SJ-16)

Last updated on Sat Aug 15 2026 00:02:08 GMT+0000 (Coordinated Universal Time)

1 39358U 13057A 26226.61763046 .00000614 00000+0 62201-4 0 9990 2 39358 74.9696 246.0069 0014797 88.0631 272.2252 14.92724774695067
UTC large
Height (km)
Speed (km/s)
/
Latitude / Longitude
Inclination (degrees)
Orbital Period (minutes)
Azimuth
Elevation
Range (km)
Doppler Factor

Next 0 passes for location: London (51.5072 / 0.1276)

No passes found over London.
SHIJIAN-16 (SJ-16)